Kosmos-2084

operational
NORAD ID: 20663 Int'l Des: 1990-055 Owner: PVO Country: SU
LEOCIRCULAR

关于 Kosmos-2084

正在加载描述...

实时位置

正在加载3D地球...

即将过境

高度历史

Altitude vs Time

uPlot chart will show altitude changes over time

两行轨道根数

1 20663U 90055A 26062.14682862 .00003428 00000-0 24966-3 0 9996
2 20663 62.7926 357.8915 0018121 188.5743 171.5050 15.05601210935331
Epoch: Mar 3, 2026 • Age: 25 hours

当前状态

高度 545.3 km
速度 7.60 km/s
星下点 36.10°N, 21.74°W
发射日期 Jun 21, 1990
运行时间 35.7 years
类型 other

技术详情

分类 Payload
质量 1250.00 kg
干质量 1150.00 kg
总质量 1250.00 kg
长度 4.00 m
直径 2.00 m
跨度 5.00 m
形状 Cyl + 2 Pan
制造商 NPOL/KOMET
平台类型 Oko
阶段状态 In Orbit
所有者/国家 PVO/SU

大型星座

Loading constellations...